Date String (YYYY-MM-DD hh:mm:ss) UTC,Instrument flags,Ambient pressure (hPa),Sample flow (lpm),Bypass flow (lpm),Sample temperature (°C),Ambient temperature (°C),ASC tube jacket temperature (°C),LED temperature (°C),Box temperature (°C),Sample RH (%),Span deviation,Mass concentration (μg/m³),Mass concentration (μg/m³),Mass concentration (μg/m³)
DateTimeUTC,F1_M11,P_M11,Q1_M11,Q2_M11,T1_M11,T2_M11,T3_M11,T4_M11,T5_M11,U1_M11,ZSPAN_M11,X0_M11,X2_M11,X1_M11
2023-01-28 23:00:00,,0818.9,5.01,0.00,21.8,19.8,00.0,30.9,23.3,15.0,0000.0,0008.72,0005.98,0005.77
2023-01-28 23:01:00,,0818.9,5.00,0.00,21.8,19.7,00.0,30.9,23.3,15.0,0000.0,0008.85,0006.00,0005.78
2023-01-28 23:02:00,,0818.9,5.02,0.00,21.8,20.5,00.0,30.8,23.5,14.9,0000.0,0008.84,0006.01,0005.81
2023-01-28 23:03:00,,0819.0,5.00,0.00,21.9,21.7,00.0,30.8,23.8,14.8,0000.0,0008.82,0006.02,0005.83
2023-01-28 23:04:00,,0819.0,4.99,0.00,22.0,22.5,00.0,30.8,24.0,14.7,0000.0,0008.74,0006.02,0005.85
2023-01-28 23:05:00,,0819.0,4.99,0.00,22.1,22.0,00.0,30.8,24.0,14.7,0000.0,0008.68,0006.02,0005.85
2023-01-28 23:06:00,,0819.0,5.01,0.00,22.0,21.4,00.0,30.9,23.8,14.7,0000.0,0008.67,0006.03,0005.85
2023-01-28 23:07:00,,0819.0,5.00,0.00,22.0,21.0,00.0,30.9,23.7,14.7,0000.0,0008.69,0006.04,0005.85
2023-01-28 23:08:00,,0819.0,5.00,0.00,22.0,20.7,00.0,30.9,23.6,14.7,0000.0,0008.71,0006.05,0005.85
2023-01-28 23:09:00,,0819.0,5.01,0.00,21.9,20.4,00.0,30.9,23.5,14.8,0000.0,0008.67,0006.03,0005.85
2023-01-28 23:10:00,,0819.0,5.00,0.00,21.9,20.2,00.0,30.9,23.5,14.8,0000.0,0008.19,0006.04,0005.86
2023-01-28 23:11:00,,0819.0,5.01,0.00,21.8,20.0,00.0,30.9,23.4,14.9,0000.0,0008.00,0006.04,0005.85
2023-01-28 23:12:00,,0819.0,5.01,0.00,21.8,19.9,00.0,30.8,23.4,15.0,0000.0,0007.86,0006.03,0005.84
2023-01-28 23:13:00,,0819.0,5.01,0.00,21.8,19.9,00.0,30.8,23.3,15.1,0000.0,0007.82,0006.00,0005.82
2023-01-28 23:14:00,,0819.0,4.99,0.00,21.7,19.8,00.0,30.8,23.3,15.1,0000.0,0007.80,0005.98,0005.80
2023-01-28 23:15:00,,0819.0,5.00,0.00,21.7,19.7,00.0,30.8,23.2,15.2,0000.0,0007.80,0005.98,0005.80
2023-01-28 23:16:00,,0819.0,5.01,0.00,21.7,19.6,00.0,30.8,23.2,15.2,0000.0,0007.80,0005.98,0005.79
2023-01-28 23:17:00,,0819.0,5.00,0.00,21.7,20.4,00.0,30.7,23.4,15.2,0000.0,0008.11,0005.96,0005.78
2023-01-28 23:18:00,,0819.1,5.01,0.00,21.8,21.7,00.0,30.7,23.7,15.1,0000.0,0008.22,0005.97,0005.79
2023-01-28 23:19:00,,0819.1,4.99,0.00,21.9,22.5,00.0,30.7,23.9,15.0,0000.0,0008.34,0005.98,0005.78
2023-01-28 23:20:00,,0819.1,4.98,0.00,22.0,22.1,00.0,30.7,23.9,14.9,0000.0,0008.35,0005.96,0005.76
2023-01-28 23:21:00,,0819.1,4.98,0.00,22.0,21.7,00.0,30.8,23.8,14.8,0000.0,0008.27,0005.90,0005.72
2023-01-28 23:22:00,,0819.1,5.02,0.00,22.0,21.3,00.0,30.8,23.8,14.7,0000.0,0008.16,0005.85,0005.69
2023-01-28 23:23:00,,0819.2,5.02,0.00,22.0,21.0,00.0,30.8,23.7,14.7,0000.0,0008.45,0005.81,0005.65
2023-01-28 23:24:00,,0819.3,5.01,0.00,21.9,20.7,00.0,30.8,23.6,14.6,0000.0,0008.70,0005.78,0005.62
2023-01-28 23:25:00,,0819.3,5.01,0.00,21.9,20.6,00.0,30.8,23.6,14.6,0000.0,0008.93,0005.75,0005.58
2023-01-28 23:26:00,,0819.2,5.00,0.00,21.9,20.4,00.0,30.8,23.5,14.5,0000.0,0008.89,0005.70,0005.53
2023-01-28 23:27:00,,0819.2,5.00,0.00,21.9,20.3,00.0,30.8,23.5,14.5,0000.0,0009.01,0005.65,0005.49
2023-01-28 23:28:00,,0819.3,5.01,0.00,21.8,20.2,00.0,30.8,23.5,14.5,0000.0,0008.94,0005.61,0005.44
2023-01-28 23:29:00,,0819.3,5.00,0.00,21.8,20.1,00.0,30.8,23.4,14.5,0000.0,0008.75,0005.54,0005.40
2023-01-28 23:30:00,,0819.3,5.00,0.00,21.8,20.1,00.0,30.8,23.4,14.5,0000.0,0008.59,0005.48,0005.35
2023-01-28 23:31:00,,0819.4,5.01,0.00,21.7,20.1,00.0,30.8,23.3,14.5,0000.0,0008.58,0005.45,0005.32
2023-01-28 23:32:00,,0819.4,5.02,0.00,21.8,20.9,00.0,30.7,23.6,14.5,0000.0,0008.57,0005.44,0005.31
2023-01-28 23:33:00,,0819.4,4.99,0.00,21.9,22.0,00.0,30.7,23.9,14.4,0000.0,0008.58,0005.43,0005.30
2023-01-28 23:34:00,,0819.5,4.99,0.00,22.0,22.7,00.0,30.7,24.1,14.3,0000.0,0008.26,0005.45,0005.33
2023-01-28 23:35:00,,0819.4,5.02,0.00,22.1,22.3,00.0,30.8,24.1,14.2,0000.0,0008.03,0005.48,0005.36
2023-01-28 23:36:00,,0819.5,5.00,0.00,22.1,21.8,00.0,30.8,23.9,14.2,0000.0,0007.92,0005.53,0005.42
2023-01-28 23:37:00,,0819.5,4.98,0.00,22.1,21.4,00.0,30.9,23.8,14.2,0000.0,0007.95,0005.56,0005.45
2023-01-28 23:38:00,,0819.7,5.00,0.00,22.0,21.1,00.0,30.9,23.8,14.3,0000.0,0007.85,0005.59,0005.47
2023-01-28 23:39:00,,0819.7,5.00,0.00,22.0,20.8,00.0,30.9,23.7,14.3,0000.0,0007.86,0005.64,0005.53
2023-01-28 23:40:00,,0819.7,4.99,0.00,22.0,20.7,00.0,30.9,23.7,14.3,0000.0,0007.93,0005.71,0005.61
2023-01-28 23:41:00,,0819.7,5.00,0.00,22.0,20.5,00.0,30.9,23.6,14.3,0000.0,0007.99,0005.78,0005.68
2023-01-28 23:42:00,,0819.8,5.00,0.00,21.9,20.4,00.0,30.9,23.6,14.3,0000.0,0008.02,0005.84,0005.73
2023-01-28 23:43:00,,0819.9,5.01,0.00,21.9,20.3,00.0,30.9,23.5,14.3,0000.0,0008.37,0005.91,0005.79
2023-01-28 23:44:00,,0819.9,5.01,0.00,21.9,20.2,00.0,30.9,23.5,14.4,0000.0,0008.57,0005.97,0005.85
2023-01-28 23:45:00,,0820.0,5.01,0.00,21.8,20.1,00.0,30.9,23.4,14.4,0000.0,0008.58,0005.99,0005.88
2023-01-28 23:46:00,,0819.9,5.02,0.00,21.8,20.5,00.0,30.8,23.5,14.4,0000.0,0008.57,0005.98,0005.86
2023-01-28 23:47:00,,0819.9,5.01,0.00,21.9,21.6,00.0,30.8,23.9,14.3,0000.0,0008.41,0005.90,0005.80
2023-01-28 23:48:00,,0819.9,4.99,0.00,22.1,22.6,00.0,30.8,24.1,14.2,0000.0,0008.32,0005.83,0005.74
2023-01-28 23:49:00,,0819.9,4.99,0.00,22.2,22.5,00.0,30.9,24.2,14.1,0000.0,0008.15,0005.77,0005.69
2023-01-28 23:50:00,,0819.9,5.00,0.00,22.2,22.0,00.0,30.9,24.1,14.0,0000.0,0007.83,0005.68,0005.59
2023-01-28 23:51:00,,0819.9,4.99,0.00,22.2,21.5,00.0,30.9,23.9,14.0,0000.0,0007.71,0005.57,0005.48
2023-01-28 23:52:00,,0819.9,4.98,0.00,22.1,21.2,00.0,30.9,23.9,14.0,0000.0,0007.59,0005.46,0005.39
2023-01-28 23:53:00,,0819.9,5.00,0.00,22.1,20.9,00.0,31.0,23.8,14.0,0000.0,0007.47,0005.37,0005.31
2023-01-28 23:54:00,,0819.9,5.00,0.00,22.1,20.7,00.0,31.0,23.8,14.1,0000.0,0006.85,0005.27,0005.22
2023-01-28 23:55:00,,0819.9,4.98,0.00,22.0,20.5,00.0,31.0,23.7,14.1,0000.0,0006.40,0005.17,0005.12
2023-01-28 23:56:00,,0819.9,5.02,0.00,22.0,20.4,00.0,31.0,23.6,14.2,0000.0,0006.19,0005.08,0005.03
2023-01-28 23:57:00,,0820.0,5.00,0.00,21.9,20.3,00.0,30.9,23.6,14.2,0000.0,0006.09,0005.04,0005.00
2023-01-28 23:58:00,,0820.0,5.00,0.00,21.9,20.2,00.0,30.9,23.6,14.2,0000.0,0006.05,0005.03,0004.99
2023-01-28 23:59:00,,0819.9,5.00,0.00,21.9,20.3,00.0,30.9,23.6,14.2,0000.0,0006.10,0005.03,0004.99
